Monticello, NY

3:22 AM EST on November 14, 2019 (GMT -0500)
Sullivan County International

Weather History for KMSV - August, 2019

Change the Weather History Date:

Friday, August 23, 2019

  Actual Average Record
Temperature  
Mean Temperature 64 °F -  
Max Temperature 73 °F 74 °F 84 °F (1996)
Min Temperature 55 °F 55 °F 46 °F (2004)
Degree Days  
Heating Degree Days 1    
Growing Degree Days 14 (Base 50)    
Moisture  
Dew Point 53 °F    
Average Humidity 70    
Maximum Humidity 84    
Minimum Humidity 49    
Precipitation  
Precipitation 0.00 in - - ()
Sea Level Pressure  
Sea Level Pressure 30.05 in    
Wind  
Wind Speed 6 mph (NNW)    
Max Wind Speed 16 mph    
Max Gust Speed -    
Visibility 10 miles    
Events      
Averages and records for this station are not official NWS values.
T = Trace of Precipitation, MM = Missing Value Source: NWS Daily Summary

Daily Weather History Graph

Daily Weather History Graph

Search for Another Location

Airport or City:

Astronomy

Aug. 23, 2019 Rise Set
Actual Time 6:15 AM EDT 7:47 PM EDT
Civil Twilight 5:46 AM EDT 8:16 PM EDT
Nautical Twilight 5:11 AM EDT 8:51 PM EDT
Astronomical Twilight 4:33 AM EDT 9:28 PM EDT
Moon No Moon Rise 1:56 PM EDT (8/23)
Length of Visible Light 14h 30m
Length of Day
13h 31m
Waning Gibbous, 50% of the Moon is Illuminated
Aug 23
Waning Gibbous
Aug 30
New
Sep 5
First Quarter
Sep 14
Full
Sep 21
Last Quarter

Hourly Weather History & Observations

Time (EDT) Temp. Dew Point Humidity Pressure Visibility Wind Dir Wind Speed Gust Speed Precip Events Conditions
12:56 AM 64.0 °F 57.0 °F 78% 29.98 in 10.0 mi NW 4.6 mph - N/A   Partly Cloudy
1:56 AM 63.0 °F 55.9 °F 78% 29.99 in 10.0 mi NW 5.8 mph - N/A   Overcast
2:56 AM 62.1 °F 54.0 °F 75% 29.99 in 10.0 mi NW 6.9 mph - N/A   Mostly Cloudy
3:56 AM 61.0 °F 54.0 °F 78% 29.99 in 10.0 mi NW 4.6 mph - N/A   Partly Cloudy
4:56 AM 60.1 °F 55.0 °F 83% 29.99 in 10.0 mi NW 3.5 mph - N/A   Clear
5:56 AM 60.1 °F 54.0 °F 80% 30.01 in 10.0 mi Calm Calm - N/A   Clear
6:56 AM 60.1 °F 54.0 °F 80% 30.03 in 10.0 mi WNW 4.6 mph - N/A   Overcast
7:56 AM 60.1 °F 55.0 °F 83% 30.05 in 10.0 mi NW 5.8 mph - N/A   Scattered Clouds
8:56 AM 62.1 °F 55.0 °F 78% 30.05 in 10.0 mi North 4.6 mph - N/A   Partly Cloudy
9:56 AM 66.9 °F 55.0 °F 66% 30.05 in 8.0 mi NNE 6.9 mph - N/A   Clear
10:56 AM 70.0 °F 54.0 °F 57% 30.05 in 10.0 mi North 9.2 mph - N/A   Clear
11:36 AM 68.0 °F 51.8 °F 56% 30.07 in 10.0 mi NNW 10.4 mph - N/A   Partly Cloudy
11:56 AM 68.0 °F 51.1 °F 55% 30.05 in 10.0 mi NNE 9.2 mph - N/A   Clear
12:56 PM 71.1 °F 52.0 °F 51% 30.03 in 10.0 mi North 16.1 mph - N/A   Partly Cloudy
1:56 PM 71.1 °F 51.1 °F 49% 30.05 in 10.0 mi Variable 6.9 mph - N/A   Scattered Clouds
2:56 PM 69.1 °F 53.1 °F 57% 30.04 in 10.0 mi NNW 6.9 mph - N/A   Clear
3:56 PM 69.1 °F 53.1 °F 57% 30.06 in 10.0 mi NW 5.8 mph - N/A   Clear
4:56 PM 68.0 °F 53.1 °F 59% 30.05 in 10.0 mi North 8.1 mph - N/A   Clear
5:56 PM 66.9 °F 54.0 °F 63% 30.06 in 10.0 mi NNW 5.8 mph - N/A   Clear
6:56 PM 66.0 °F 52.0 °F 60% 30.07 in 10.0 mi NNW 8.1 mph - N/A   Clear
7:56 PM 63.0 °F 53.1 °F 70% 30.08 in 10.0 mi NW 3.5 mph - N/A   Clear
8:56 PM 60.1 °F 53.1 °F 78% 30.10 in 10.0 mi NW 4.6 mph - N/A   Clear
9:56 PM 57.9 °F 53.1 °F 84% 30.10 in 10.0 mi NW 5.8 mph - N/A   Partly Cloudy
10:56 PM 57.0 °F 52.0 °F 83% 30.12 in 10.0 mi NNW 5.8 mph - N/A   Clear
11:56 PM 55.9 °F 51.1 °F 84% 30.14 in 10.0 mi NNW 3.5 mph - N/A   Clear